Regional Weather Roundup
Issued by NWS

Home | Current Version | Previous Version | Graphics & Text | Print | Product List | Glossary On
Versions: 1 2 3 4 5 6 7 8 9 10 11 12 13 14 15 16 17 18 19 20 21 22 23 24 25 26 27 28 29 30 31 32 33 34 35 36 37 38 39 40 41 42 43 44 45 46 47 48 49 50
850
ASUS43 KOAX 051802
RWRNE

WEATHER ROUNDUP FOR NEBRASKA
NATIONAL WEATHER SERVICE OMAHA NE
1200 PM CST MON DEC 05 2016

NOTES: SATELLITE DATA IS BEING USED TO AUGMENT CLOUD COVER ABOVE
       12000 FEET.
       "FAIR" INDICATES FEW OR NO CLOUDS BELOW 12,000 FEET WITH NO
       SIGNIFICANT WEATHER AND/OR OBSTRUCTIONS TO VISIBILITY.

  * THESE STATIONS DO NOT REPORT WEATHER SUCH AS RAIN...SNOW OR FOG.

NEZ001>004-019>022-054>056-051900-
NEBRASKA PANHANDLE

CITY           SKY/WX    TMP DP  RH WIND       PRES   REMARKS
SCOTTSBLUFF    SUNNY     44  25  47 NW17G26   29.63R
6HR MIN TEMP:  38; 6HR MAX TEMP:  49;

ALLIANCE       PTSUNNY   42  26  53 N16       29.61R
6HR MIN TEMP:  36; 6HR MAX TEMP:  48;

CHADRON        LGT SNOW  33  30  88 CALM      29.65S VSB 3/4
6HR MIN TEMP:  31; 6HR MAX TEMP:  43; 6HR PCP:  0.01;

KIMBALL        MOSUNNY   44  20  38 NW36G43   29.62F
SIDNEY         CLOUDY    45  22  40 NW30G51   29.62R
6HR MIN TEMP:  29; 6HR MAX TEMP:  51;

$$

NEZ057>060-069>072-079>082-051900-
SOUTHWEST NEBRASKA

CITY           SKY/WX    TMP DP  RH WIND       PRES   REMARKS
NORTH PLATTE   CLOUDY    44  24  45 NW7       29.58F
6HR MIN TEMP:  33; 6HR MAX TEMP:  44;

IMPERIAL       CLOUDY    49  20  31 W8        29.59S
6HR MIN TEMP:  30; 6HR MAX TEMP:  49;

LEXINGTON      SUNNY     44  24  46 W5        29.59F
MCCOOK         MOSUNNY   44  22  41 N5        29.59F
6HR MIN TEMP:  25; 6HR MAX TEMP:  44;

OGALLALA       CLOUDY    44  22  42 W7        29.58F
$$

NEZ005>010-023>029-035>040-094-051900-
NORTH CENTRAL NEBRASKA

CITY           SKY/WX    TMP DP  RH WIND       PRES   REMARKS
VALENTINE      SUNNY     40  28  62 NW23G30   29.56R WCI  30
6HR MIN TEMP:  37; 6HR MAX TEMP:  50;

BROKEN BOW     CLOUDY    48  27  44 W8        29.54F
6HR MIN TEMP:  34; 6HR MAX TEMP:  49;

O`NEILL        CLOUDY    47  27  46 S12       29.50F
ORD            MOSUNNY   45  25  45 S12       29.53F
6HR MIN TEMP:  36; 6HR MAX TEMP:  45;

THEDFORD       MOSUNNY   56  28  33 W18G25    29.53F
$$

NEZ041-046>049-061>064-073>077-083>087-051900-
SOUTH CENTRAL NEBRASKA

CITY           SKY/WX    TMP DP  RH WIND       PRES   REMARKS
GRAND ISLAND   CLOUDY    44  31  60 S16       29.62F
6HR MIN TEMP:  36; 6HR MAX TEMP:  44;

AURORA         MOSUNNY   45  32  61 SW16      29.62F
HASTINGS       SUNNY     46  31  55 SW9G18    29.64S
6HR MIN TEMP:  35; 6HR MAX TEMP:  46;

HEBRON         SUNNY     44  33  65 S12       29.65F
HOLDREGE       SUNNY     45  26  45 S8        29.60F
KEARNEY *      SUNNY     46  27  46 S9        29.60F
YORK           MOSUNNY   43  34  70 S18G24    29.64F
$$

NEZ011>018-030>034-042>045-051900-
NORTHEAST NEBRASKA

CITY           SKY/WX    TMP DP  RH WIND       PRES   REMARKS
NORFOLK        CLOUDY    42  29  59 S18G31    29.56F
6HR MIN TEMP:  35; 6HR MAX TEMP:  42;

ALBION         CLOUDY    43  30  61 S14       29.57F
BLAIR          SUNNY     44  34  67 S23       29.66F
FREMONT        CLOUDY    43  34  70 S13       29.66F
TEKAMAH        CLOUDY    44  35  70 S25       29.65F
6HR MIN TEMP:  32; 6HR MAX TEMP:  44;

WAYNE          CLOUDY    44  32  64 S16G22    29.57F
$$

NEZ050>053-065>068-078-088>093-051900-
SOUTHEAST NEBRASKA

CITY           SKY/WX    TMP DP  RH WIND       PRES   REMARKS
LINCOLN        SUNNY     44  34  67 S18       29.67F
6HR MIN TEMP:  33; 6HR MAX TEMP:  44;

OMAHA EPPLEY   PTSUNNY   48  35  60 S23       29.70F
6HR MIN TEMP:  35; 6HR MAX TEMP:  48;

BEATRICE       SUNNY     51  35  54 S20G26    29.68F
FALLS CITY     SUNNY     48  36  63 S18G25    29.75F
6HR MIN TEMP:  33; 6HR MAX TEMP:  48;

NEBRASKA CITY  SUNNY     47  34  59 S16G22    29.73F
PLATTSMOUTH    SUNNY     47  33  59 S12       29.72F
$$

NEZ044-045-051>053-067-051900-
OMAHA AREA

CITY           SKY/WX    TMP DP  RH WIND       PRES   REMARKS
OMAHA EPPLEY   PTSUNNY   48  35  60 S23       29.70F
6HR MIN TEMP:  35; 6HR MAX TEMP:  48;

BLAIR          SUNNY     44  34  67 S23       29.66F
FREMONT        CLOUDY    43  34  70 S13       29.66F
MILLARD        MOSUNNY   47  35  63 SE15      29.69F
OFFUTT AFB     MOSUNNY   48  36  63 S16       29.71F
PLATTSMOUTH    SUNNY     47  33  59 S12       29.72F
WAHOO          FAIR      44  34  68 S12       29.67F
$$




USA.gov is the U.S. government's official web portal to all federal, state and local government web resources and services.